{"data":{"norad_id":63524,"intl_designator":"2025-073A","name":"TJS-17","alt_names":[],"object_type":"PAYLOAD","status":"ACTIVE","operator":null,"country":"PRC","launch_date":"2025-04-10","launch_site_code":"XICLF","launch_vehicle":null,"mission":null,"orbit_class":"UNKNOWN","rcs_meters":null,"size_class":null,"mass_kg":null,"dimensions":null,"purposes":["comms"],"wikipedia_slug":null,"has_3d_model":false,"image_url":null,"decayed_at":null,"tle_current":{"epoch":"2026-05-24T18:22:43.761792Z","epoch_age_seconds":102246,"freshness":"FRESH","line1":"1 63524U 25073A   26144.76578428 -.00000073  00000+0  00000+0 0  9990","line2":"2 63524   1.0057  82.8607 0002820 290.5604 309.1193  1.00271529  4056","mean_motion":1.00271529,"eccentricity":0.000282,"inclination_deg":1.0057,"raan_deg":82.8607,"arg_perigee_deg":290.5604,"mean_anomaly_deg":309.1193,"bstar":0,"rev_number":405,"period_min":1436.100570482,"perigee_km":35774.776252785,"apogee_km":35798.557202088,"semimajor_km":42164.803727436,"source":"CELESTRAK","updated_at":"2026-05-25T13:38:14.152992Z"}}}